EFW62ME LEIB-EGKK

Flight info

Callsign EFW62ME
Flight time 1h 53m
Altitude 38000
Route EPAMA4E EPAMA N856 UMURE DCT XIKEN DCT KARES DCT ARBEK DCT REBUL DCT USKAR DCT MOPAS DCT GIROM DCT GONUP DCT MANAK DCT EPAPU DCT RINSO DCT EKRAS DCT UPALO DCT REVTU DCT ODREP UP88 VASUX VASUX1G
Aircraft A320/M-SDE3FGHIKRWXY/S

Departure

Time 2026-05-04 09:01
Airport Ibiza Airport (LEIB)

Arrival

Time 2026-05-04 10:54
Airport London Gatwick Airport (EGKK)
Time Latitude Longitude Altitude Speed Heading
2026-05-04 08:24 38.87564 1.36918 9 ft 0 kts 333°
2026-05-04 08:51 38.87557 1.36922 9 ft 4 kts 333°
2026-05-04 08:51 38.87533 1.36938 9 ft 4 kts 332°
2026-05-04 08:52 38.87515 1.36951 9 ft 4 kts 348°
2026-05-04 08:52 38.87497 1.36943 10 ft 4 kts 60°
2026-05-04 08:52 38.87486 1.36919 12 ft 1 kts 62°
2026-05-04 08:52 38.87486 1.36918 12 ft 0 kts 62°
2026-05-04 08:55 38.87488 1.36923 11 ft 2 kts 62°
2026-05-04 08:55 38.87501 1.36954 8 ft 6 kts 62°
2026-05-04 08:57 38.87594 1.37550 9 ft 11 kts 146°
2026-05-04 09:01 38.87418 1.37634 10 ft 125 kts 242°
2026-05-04 09:01 38.86942 1.36481 154 ft 157 kts 242°
2026-05-04 09:01 38.86449 1.35229 799 ft 157 kts 243°
2026-05-04 09:01 38.85961 1.33964 1429 ft 165 kts 243°
2026-05-04 09:02 38.85414 1.32553 1758 ft 189 kts 243°
2026-05-04 09:02 38.84791 1.30967 2318 ft 203 kts 242°
2026-05-04 09:02 38.84158 1.29340 3176 ft 205 kts 242°
2026-05-04 09:02 38.83514 1.27689 3989 ft 208 kts 242°
2026-05-04 09:03 38.83140 1.25893 4814 ft 215 kts 272°
2026-05-04 09:03 38.83733 1.24071 5377 ft 240 kts 309°
2026-05-04 09:03 38.85020 1.22608 6115 ft 252 kts 319°
2026-05-04 09:03 38.86458 1.21282 6978 ft 256 kts 321°
2026-05-04 09:04 38.87944 1.19992 7865 ft 259 kts 321°
2026-05-04 09:04 38.89447 1.18686 8731 ft 263 kts 321°
2026-05-04 09:04 38.90973 1.17364 9577 ft 268 kts 325°
2026-05-04 09:04 38.92729 1.16458 10369 ft 278 kts 343°
2026-05-04 09:05 38.94710 1.16261 10875 ft 300 kts
2026-05-04 09:05 38.96852 1.16839 11138 ft 327 kts 11°
2026-05-04 09:05 38.99131 1.17601 11356 ft 350 kts 12°
2026-05-04 09:05 39.01541 1.18414 11810 ft 363 kts 12°
2026-05-04 09:06 39.04000 1.19246 12483 ft 368 kts 11°
2026-05-04 09:07 39.22110 1.25266 16944 ft 399 kts
2026-05-04 09:08 39.24814 1.26160 17543 ft 403 kts
2026-05-04 09:08 39.27546 1.27064 18157 ft 408 kts
2026-05-04 09:08 39.30310 1.27982 18703 ft 412 kts
2026-05-04 09:08 39.33103 1.28913 19240 ft 417 kts
2026-05-04 09:09 39.35926 1.29856 19813 ft 421 kts
2026-05-04 09:09 39.38773 1.30808 20371 ft 425 kts
2026-05-04 09:09 39.41656 1.31770 20905 ft 430 kts
2026-05-04 09:09 39.44524 1.32728 21421 ft 434 kts
2026-05-04 09:10 39.47465 1.33712 21937 ft 438 kts
2026-05-04 09:10 39.50435 1.34708 22442 ft 443 kts
2026-05-04 09:10 39.53431 1.35712 22939 ft 447 kts
2026-05-04 09:10 39.56452 1.36725 23428 ft 451 kts
2026-05-04 09:11 39.59525 1.37492 23882 ft 449 kts
2026-05-04 09:11 39.62630 1.37673 24303 ft 445 kts 351°
2026-05-04 09:11 39.65702 1.37328 24712 ft 444 kts 347°
2026-05-04 09:11 39.68781 1.36904 25119 ft 446 kts 347°
2026-05-04 09:12 39.71878 1.36485 25516 ft 450 kts 347°
2026-05-04 09:12 39.75000 1.36074 25903 ft 453 kts 347°
2026-05-04 09:14 39.97427 1.33101 28524 ft 473 kts 346°
2026-05-04 09:14 40.00705 1.32660 28884 ft 475 kts 346°
2026-05-04 09:14 40.04007 1.32218 29266 ft 478 kts 346°
2026-05-04 09:14 40.07328 1.31774 29601 ft 481 kts 346°
2026-05-04 09:15 40.10671 1.31326 29945 ft 484 kts 346°
2026-05-04 09:15 40.14030 1.30873 30254 ft 487 kts 346°
2026-05-04 09:15 40.17404 1.30421 30653 ft 486 kts 346°
2026-05-04 09:15 40.20762 1.29974 31077 ft 485 kts 346°
2026-05-04 09:17 40.47426 1.26372 34542 ft 478 kts 346°
2026-05-04 09:18 40.50732 1.25921 34920 ft 477 kts 346°
2026-05-04 09:18 40.53987 1.25481 35279 ft 476 kts 346°
2026-05-04 09:18 40.57324 1.25032 35642 ft 475 kts 346°
2026-05-04 09:18 40.60561 1.24593 35990 ft 474 kts 346°
2026-05-04 09:19 40.63884 1.24142 36335 ft 473 kts 346°
2026-05-04 09:19 40.67156 1.23697 36669 ft 472 kts 346°
2026-05-04 09:19 40.70421 1.23251 36993 ft 471 kts 346°
2026-05-04 09:19 40.73638 1.22811 37307 ft 471 kts 346°
2026-05-04 09:20 40.76889 1.22364 37616 ft 470 kts 346°
2026-05-04 09:20 40.80143 1.21914 37901 ft 470 kts 346°
2026-05-04 09:20 40.86668 1.21008 37991 ft 473 kts 346°
2026-05-04 09:21 40.93229 1.20107 37980 ft 475 kts 346°
2026-05-04 09:21 40.99805 1.19206 37979 ft 476 kts 346°
2026-05-04 09:22 41.06388 1.18306 37975 ft 476 kts 346°
2026-05-04 09:22 41.12973 1.17392 37993 ft 476 kts 346°
2026-05-04 09:23 41.19577 1.16549 37991 ft 478 kts 347°
2026-05-04 09:23 41.26214 1.15884 37990 ft 479 kts 348°
2026-05-04 09:25 41.52783 1.13140 37994 ft 479 kts 348°
2026-05-04 09:26 41.59428 1.12427 38013 ft 479 kts 349°
2026-05-04 09:26 41.66084 1.11739 38008 ft 480 kts 349°
2026-05-04 09:27 41.72747 1.11044 38001 ft 480 kts 348°
2026-05-04 09:27 41.79415 1.10327 38021 ft 481 kts 349°
2026-05-04 09:28 41.86046 1.09617 38005 ft 481 kts 349°
2026-05-04 09:28 41.92725 1.08905 37995 ft 482 kts 349°
2026-05-04 09:29 41.99413 1.08194 38009 ft 482 kts 349°
2026-05-04 09:29 42.06101 1.07474 38004 ft 482 kts 349°
2026-05-04 09:30 42.12784 1.06751 38007 ft 482 kts 349°
2026-05-04 09:30 42.19467 1.06028 38039 ft 482 kts 349°
2026-05-04 09:31 42.26146 1.05311 38038 ft 481 kts 349°
2026-05-04 09:31 42.32818 1.04594 38032 ft 481 kts 349°
2026-05-04 09:32 42.39496 1.03877 38025 ft 481 kts 349°
2026-05-04 09:34 42.66204 1.00971 38021 ft 482 kts 350°
2026-05-04 09:34 42.72883 1.00237 38004 ft 481 kts 349°
2026-05-04 09:35 42.79434 0.99067 37986 ft 474 kts 340°
2026-05-04 09:35 42.85822 0.96856 37976 ft 474 kts 339°
2026-05-04 09:37 43.11389 0.88011 37995 ft 474 kts 340°
2026-05-04 09:38 43.16751 0.86149 37988 ft 474 kts 340°
2026-05-04 09:38 43.23149 0.83927 37997 ft 474 kts 340°
2026-05-04 09:39 43.29499 0.81718 37995 ft 474 kts 340°
2026-05-04 09:39 43.35895 0.79485 37993 ft 474 kts 340°
2026-05-04 09:40 43.42283 0.77237 37991 ft 474 kts 340°
2026-05-04 09:40 43.48504 0.74468 37977 ft 465 kts 331°
2026-05-04 09:42 43.72343 0.60421 37980 ft 465 kts 331°
2026-05-04 09:43 43.78293 0.56885 37987 ft 466 kts 331°
2026-05-04 09:43 43.84253 0.53339 37992 ft 466 kts 332°
2026-05-04 09:44 43.90211 0.49791 37990 ft 466 kts 332°
2026-05-04 09:46 44.14070 0.35509 38003 ft 467 kts 332°
2026-05-04 09:46 44.19989 0.31943 37992 ft 467 kts 332°
2026-05-04 09:47 44.25952 0.28346 37992 ft 467 kts 332°
2026-05-04 09:49 44.49841 0.13857 37980 ft 469 kts 332°
2026-05-04 09:51 44.70803 0.01024 37973 ft 470 kts 332°
2026-05-04 09:51 44.76798 -0.02659 37981 ft 470 kts 332°
2026-05-04 09:52 44.82792 -0.06358 37979 ft 470 kts 332°
2026-05-04 09:52 44.88786 -0.10060 37974 ft 470 kts 332°
2026-05-04 09:53 44.94784 -0.13770 37968 ft 471 kts 332°
2026-05-04 09:53 45.00777 -0.17485 37983 ft 471 kts 332°
2026-05-04 09:54 45.06731 -0.21189 37981 ft 471 kts 332°
2026-05-04 09:54 45.12725 -0.24935 37979 ft 471 kts 332°
2026-05-04 09:55 45.18715 -0.28682 37977 ft 471 kts 332°
2026-05-04 09:55 45.24709 -0.32438 37984 ft 471 kts 332°
2026-05-04 09:56 45.30694 -0.36195 37986 ft 471 kts 332°
2026-05-04 09:56 45.36687 -0.39959 37987 ft 471 kts 332°
2026-05-04 09:57 45.42675 -0.43734 37993 ft 471 kts 332°
2026-05-04 09:57 45.48664 -0.47525 37993 ft 471 kts 332°
2026-05-04 09:58 45.54654 -0.51324 37995 ft 471 kts 332°
2026-05-04 09:58 45.60641 -0.55123 38005 ft 471 kts 333°
2026-05-04 10:00 45.84604 -0.70440 38002 ft 472 kts 332°
2026-05-04 10:04 46.26898 -0.95902 38014 ft 476 kts 346°
2026-05-04 10:04 46.33382 -0.97876 38012 ft 476 kts 346°
2026-05-04 10:05 46.39861 -0.99874 38016 ft 476 kts 346°
2026-05-04 10:05 46.46350 -1.01879 38013 ft 477 kts 346°
2026-05-04 10:06 46.52844 -1.03878 38010 ft 477 kts 346°
2026-05-04 10:06 46.59294 -1.05867 38012 ft 477 kts 346°
2026-05-04 10:08 46.82018 -1.12919 38018 ft 477 kts 346°
2026-05-04 10:08 46.88506 -1.14944 38013 ft 477 kts 346°
2026-05-04 10:09 46.94994 -1.16989 38009 ft 477 kts 346°
2026-05-04 10:09 47.01478 -1.19033 38008 ft 477 kts 346°
2026-05-04 10:10 47.07965 -1.21073 38010 ft 477 kts 346°
2026-05-04 10:10 47.14454 -1.23122 38011 ft 477 kts 346°
2026-05-04 10:11 47.20942 -1.25180 38024 ft 476 kts 346°
2026-05-04 10:11 47.27417 -1.27228 38015 ft 476 kts 346°
2026-05-04 10:12 47.33885 -1.29278 38014 ft 475 kts 346°
2026-05-04 10:12 47.40348 -1.31345 38015 ft 475 kts 346°
2026-05-04 10:13 47.46806 -1.33416 38015 ft 474 kts 346°
2026-05-04 10:13 47.53253 -1.35470 38009 ft 474 kts 346°
2026-05-04 10:14 47.59689 -1.37540 38012 ft 473 kts 346°
2026-05-04 10:16 47.85703 -1.42276 38014 ft 473 kts 356°
2026-05-04 10:16 47.92269 -1.42777 38013 ft 472 kts 355°
2026-05-04 10:17 47.98829 -1.43287 38012 ft 472 kts 356°
2026-05-04 10:19 48.25032 -1.45181 38007 ft 471 kts 356°
2026-05-04 10:19 48.28285 -1.45709 38003 ft 468 kts 345°
2026-05-04 10:19 48.31405 -1.47060 38002 ft 467 kts 341°
2026-05-04 10:20 48.37606 -1.49942 37995 ft 467 kts 341°
2026-05-04 10:20 48.43807 -1.52860 38001 ft 467 kts 341°
2026-05-04 10:21 48.50013 -1.55777 38008 ft 467 kts 341°
2026-05-04 10:21 48.56211 -1.58688 38011 ft 467 kts 341°
2026-05-04 10:22 48.65513 -1.63063 38010 ft 467 kts 341°
2026-05-04 10:23 48.71709 -1.66003 38009 ft 467 kts 341°
2026-05-04 10:25 48.96881 -1.74978 38011 ft 469 kts
2026-05-04 10:25 49.03413 -1.74695 38010 ft 470 kts
2026-05-04 10:26 49.09944 -1.74454 38026 ft 470 kts
2026-05-04 10:26 49.16488 -1.74224 38025 ft 470 kts
2026-05-04 10:27 49.21931 -1.74023 38031 ft 471 kts
2026-05-04 10:27 49.28479 -1.73766 38025 ft 471 kts
2026-05-04 10:28 49.36088 -1.73471 38035 ft 471 kts
2026-05-04 10:28 49.41573 -1.73260 38037 ft 471 kts
2026-05-04 10:29 49.48123 -1.73002 38037 ft 471 kts
2026-05-04 10:29 49.54667 -1.72753 38050 ft 470 kts
2026-05-04 10:30 49.61155 -1.71645 38053 ft 470 kts 15°
2026-05-04 10:30 49.67325 -1.68368 37800 ft 469 kts 20°
2026-05-04 10:30 49.70397 -1.66670 37292 ft 469 kts 20°
2026-05-04 10:31 49.73498 -1.64960 36552 ft 471 kts 20°
2026-05-04 10:31 49.76572 -1.63259 35794 ft 474 kts 20°
2026-05-04 10:32 49.95580 -1.52690 30957 ft 482 kts 20°
2026-05-04 10:33 49.98682 -1.50954 30342 ft 479 kts 20°
2026-05-04 10:33 50.01814 -1.49230 29702 ft 476 kts 19°
2026-05-04 10:33 50.04943 -1.47624 29093 ft 471 kts 18°
2026-05-04 10:33 50.08055 -1.46117 28491 ft 465 kts 17°
2026-05-04 10:34 50.11135 -1.44672 27894 ft 460 kts 17°
2026-05-04 10:34 50.14185 -1.43249 27320 ft 455 kts 17°
2026-05-04 10:34 50.17204 -1.41826 26751 ft 451 kts 17°
2026-05-04 10:34 50.20184 -1.40393 26182 ft 446 kts 18°
2026-05-04 10:35 50.23129 -1.38950 25638 ft 441 kts 18°
2026-05-04 10:35 50.26035 -1.37508 25089 ft 436 kts 18°
2026-05-04 10:35 50.28908 -1.36073 24596 ft 431 kts 18°
2026-05-04 10:35 50.31756 -1.34651 24093 ft 427 kts 18°
2026-05-04 10:36 50.34575 -1.33246 23607 ft 423 kts 18°
2026-05-04 10:36 50.37366 -1.31861 23067 ft 419 kts 18°
2026-05-04 10:36 50.40126 -1.30495 22597 ft 413 kts 18°
2026-05-04 10:36 50.42853 -1.29150 22107 ft 409 kts 17°
2026-05-04 10:37 50.45561 -1.27816 21623 ft 406 kts 18°
2026-05-04 10:37 50.48239 -1.26448 21125 ft 403 kts 21°
2026-05-04 10:37 50.50740 -1.24519 20621 ft 400 kts 32°
2026-05-04 10:37 50.52967 -1.21936 20114 ft 396 kts 41°
2026-05-04 10:39 50.65399 -1.05536 16916 ft 378 kts 44°
2026-05-04 10:39 50.67156 -1.02494 16394 ft 373 kts 52°
2026-05-04 10:39 50.68785 -0.99337 15878 ft 370 kts 52°
2026-05-04 10:40 50.70404 -0.96206 15345 ft 367 kts 52°
2026-05-04 10:40 50.72010 -0.93111 14847 ft 363 kts 51°
2026-05-04 10:40 50.73609 -0.90033 14346 ft 361 kts 51°
2026-05-04 10:40 50.75192 -0.86982 13844 ft 358 kts 51°
2026-05-04 10:41 50.76761 -0.83944 13325 ft 355 kts 52°
2026-05-04 10:41 50.78348 -0.81038 13032 ft 346 kts 47°
2026-05-04 10:41 50.80017 -0.78330 12584 ft 342 kts 46°
2026-05-04 10:41 50.81669 -0.75683 12318 ft 333 kts 46°
2026-05-04 10:42 50.83268 -0.73123 12188 ft 321 kts 46°
2026-05-04 10:42 50.84814 -0.70650 12054 ft 311 kts 46°
2026-05-04 10:42 50.86320 -0.68243 11808 ft 306 kts 46°
2026-05-04 10:42 50.87810 -0.65860 11486 ft 303 kts 46°
2026-05-04 10:43 50.89290 -0.63479 11139 ft 303 kts 46°
2026-05-04 10:44 51.02321 -0.58683 9510 ft 261 kts 12°
2026-05-04 10:45 51.03937 -0.57465 9231 ft 258 kts 42°
2026-05-04 10:45 51.04954 -0.55181 8928 ft 254 kts 72°
2026-05-04 10:45 51.05115 -0.52438 8616 ft 249 kts 103°
2026-05-04 10:45 51.04394 -0.50010 8293 ft 244 kts 134°
2026-05-04 10:46 51.03012 -0.48558 7962 ft 239 kts 165°
2026-05-04 10:46 51.01370 -0.48355 7617 ft 238 kts 187°
2026-05-04 10:46 50.99860 -0.49302 7325 ft 236 kts 219°
2026-05-04 10:46 50.98899 -0.51379 6977 ft 238 kts 250°
2026-05-04 10:47 50.98773 -0.53996 6579 ft 243 kts 282°
2026-05-04 10:47 50.99542 -0.56366 6221 ft 245 kts 314°
2026-05-04 10:47 51.00979 -0.57767 5890 ft 245 kts 344°
2026-05-04 10:47 51.02644 -0.58353 5549 ft 245 kts 350°
2026-05-04 10:49 51.10391 -0.50661 4053 ft 196 kts 77°
2026-05-04 10:49 51.10687 -0.48576 3775 ft 192 kts 77°
2026-05-04 10:50 51.10980 -0.46505 3506 ft 192 kts 77°
2026-05-04 10:51 51.12947 -0.32472 1739 ft 171 kts 77°
2026-05-04 10:52 51.13191 -0.30720 1519 ft 154 kts 77°
2026-05-04 10:52 51.13413 -0.29131 1316 ft 142 kts 77°
2026-05-04 10:52 51.13622 -0.27631 1127 ft 137 kts 78°
2026-05-04 10:54 51.14915 -0.18305 208 ft 52 kts 77°
2026-05-04 10:54 51.14991 -0.17934 206 ft 27 kts 59°
2026-05-04 10:56 51.15282 -0.16962 204 ft 17 kts 77°
2026-05-04 10:56 51.15306 -0.16796 214 ft 13 kts 77°
2026-05-04 10:56 51.15347 -0.16703 213 ft 12 kts
2026-05-04 10:57 51.15427 -0.16723 207 ft 9 kts 341°
2026-05-04 10:57 51.15448 -0.16759 213 ft 3 kts 296°
2026-05-04 10:57 51.15452 -0.16796 211 ft 4 kts 270°
2026-05-04 10:57 51.15445 -0.16854 210 ft 6 kts 257°
2026-05-04 10:58 51.15436 -0.16914 204 ft 5 kts 257°
2026-05-04 10:58 51.15460 -0.16955 206 ft 2 kts 340°
2026-05-04 10:58 51.15470 -0.16957 207 ft 3 kts 347°
2026-05-04 10:58 51.15482 -0.16962 204 ft 1 kts 348°
2026-05-04 10:59 51.15486 -0.16963 204 ft 0 kts 348°